Home > Weather > Inverness > Past weeks

Flag for U.S.A. Weather for the Past 2 Weeks in Inverness, Florida, U.S.A.

Now
48 °F

Cool.


Feels Like: 43 °F
Forecast: 43 / 56 °F
Wind: 13 mph from Northwest

Location: The Villages

Current Time: Feb 7, 2016 at 10:21:30 AM

Latest Report: Feb 7, 2016 at 9:55 AM


Visibility: 10 mi

Pressure: 29.99 "Hg

Humidity: 76%

Dew point: 41 °F

Location of InvernessLocation

Historic Weather in Inverness — Graph

°F

Inverness Temperature Yesterday

Maximum temperature yesterday: 61 °F (at 11:15 AM)
Minimum temperature yesterday: 46 °F (at 3:35 AM)
Average temperature yesterday: 52 °F

High & Low Weather Summary for the Past Weeks

 TemperatureHumidityPressure
High86 °F (Feb 3, 3:35 PM)100% (Jan 24, 11:35 PM)30.23 "Hg (Jan 24, 11:35 PM)
Low30 °F (Jan 24, 6:15 AM)31% (Feb 5, 2:15 PM)29.66 "Hg (Jan 28, 3:15 PM)
Average59 °F85%30.00 "Hg
* Reported Jan 23 9:15 AM — Feb 7 9:15 AM, Inverness, Weather by CustomWeather, © 2016

Note: Actual official high and low records may vary slightly from our data, if they occured in-between our weather recording intervals... More about our weather records

Advertising

Inverness Weather History for the Previous 24 Hours

 ConditionsComfort  
Time TempWeatherWind HumidityBarometerVisibility
9:15 AM
Sun, Feb 7
45 °FQuite cool.15 mph87%29.98 "Hg10 mi
8:55 AM43 °FQuite cool.12 mph93%29.97 "Hg10 mi
8:35 AM43 °FQuite cool.14 mph93%29.97 "Hg10 mi
8:15 AM43 °FQuite cool.13 mph100%29.97 "Hg10 mi
7:55 AM43 °FQuite cool.14 mph100%29.96 "Hg10 mi
7:35 AM45 °FQuite cool.13 mph93%29.96 "Hg10 mi
7:15 AM45 °FQuite cool.10 mph100%29.93 "Hg10 mi
6:55 AM45 °FQuite cool.14 mph100%29.93 "Hg10 mi
6:35 AM45 °FQuite cool.12 mph100%29.93 "Hg10 mi
6:15 AM45 °FQuite cool.13 mph100%29.91 "Hg10 mi
5:55 AM45 °FQuite cool.10 mph100%29.90 "Hg7 mi
5:35 AM45 °FQuite cool.9 mph100%29.90 "Hg10 mi
5:15 AM45 °FQuite cool.9 mph100%29.89 "Hg10 mi
4:55 AM45 °FQuite cool.10 mph100%29.88 "Hg10 mi
4:35 AM45 °FQuite cool.12 mph100%29.91 "Hg10 mi
4:15 AM43 °FQuite cool.13 mph100%29.91 "Hg10 mi
3:55 AM43 °FQuite cool.10 mph100%29.93 "Hg8 mi
3:35 AM43 °FFog.7 mph100%29.92 "Hg3 mi
3:15 AM45 °FQuite cool.10 mph93%29.93 "Hg10 mi
2:55 AM45 °FQuite cool.8 mph93%29.93 "Hg10 mi
2:35 AM45 °FQuite cool.9 mph100%29.93 "Hg10 mi
2:15 AM45 °FQuite cool.9 mph100%29.94 "Hg10 mi
1:55 AM45 °FQuite cool.12 mph100%29.94 "Hg10 mi
1:35 AM45 °FQuite cool.10 mph100%29.95 "Hg8 mi
1:15 AM45 °FQuite cool.12 mph100%29.95 "Hg10 mi
12:55 AM45 °FQuite cool.9 mph100%29.95 "Hg10 mi
12:35 AM46 °FCool.9 mph100%29.96 "Hg10 mi
12:15 AM46 °FCool.14 mph100%29.96 "Hg10 mi
11:55 PM
Sat, Feb 6
46 °FCool.10 mph100%29.96 "Hg10 mi
11:35 PM46 °FCool.10 mph100%29.97 "Hg10 mi
11:15 PM46 °FCool.13 mph100%29.97 "Hg10 mi
10:35 PM46 °FCool.8 mph100%29.97 "Hg10 mi
10:15 PM46 °FCool.10 mph100%29.98 "Hg7 mi
9:55 PM48 °FCool.12 mph100%29.98 "Hg10 mi
9:15 PM48 °FFog.10 mph100%29.99 "Hg5 mi
8:35 PM48 °FFog.10 mph100%30.00 "Hg2 mi
8:15 PM48 °FFog.12 mph100%30.01 "Hg3 mi
7:55 PM48 °FFog.12 mph100%30.00 "Hg6 mi
7:15 PM54 °FFog.12 mph100%29.99 "Hg3 mi
6:55 PM54 °FFog.13 mph100%29.97 "Hg2 mi
6:15 PM55 °FCool.6 mph100%29.98 "Hg7 mi
5:55 PM55 °FFog.5 mph100%29.99 "Hg4 mi
5:35 PM55 °FFog.5 mph100%29.98 "Hg4 mi
5:15 PM55 °FFog.7 mph100%29.99 "Hg4 mi
4:55 PM57 °FFog.9 mph100%30.01 "Hg4 mi
4:15 PM57 °FFog.5 mph100%29.99 "Hg5 mi
3:55 PM57 °FCool.3 mph100%30.00 "Hg7 mi
3:15 PM57 °FCool.8 mph100%30.00 "Hg10 mi
2:55 PM57 °FCool.7 mph100%30.00 "Hg9 mi
2:35 PM57 °FCool.7 mph100%30.01 "Hg10 mi
2:15 PM59 °FCool.6 mph94%30.02 "Hg10 mi
1:55 PM59 °FCool.7 mph94%30.02 "Hg8 mi
1:35 PM59 °FCool.7 mph88%30.04 "Hg9 mi
1:15 PM59 °FCool.6 mph88%30.06 "Hg9 mi
12:55 PM59 °FCool.8 mph88%30.07 "Hg10 mi
12:35 PM59 °FCool.9 mph88%30.08 "Hg9 mi
12:15 PM61 °FCool.7 mph83%30.09 "Hg9 mi
11:55 AM59 °FCool.3 mph77%30.11 "Hg10 mi
11:35 AM61 °FCool.6 mph72%30.12 "Hg7 mi
11:15 AM61 °FCool.8 mph72%30.13 "Hg10 mi
10:55 AM59 °FCool.10 mph72%30.13 "Hg10 mi
10:35 AM59 °FCool.10 mph72%30.14 "Hg10 mi
10:15 AM57 °FCool.8 mph77%30.15 "Hg9 mi
Weather by CustomWeather, © 2016

See weather overviewHow to use our weather pages